Regional Weather Roundup
Issued by NWS Kansas City/Pleasant Hill, MO

Home | Current Version | Previous Version | Text Only | Print | Product List | Glossary On
Versions: 1 2 3 4 5 6 7 8 9 10 11 12 13 14 15 16 17 18 19 20 21 22 23 24 25 26 27 28 29 30 31 32 33 34 35 36 37 38 39 40 41 42 43 44 45 46 47 48 49 50
000
ASUS43 KEAX 130310
RWREAX

WEATHER ROUNDUP FOR EASTERN KANSAS AND NORTHWEST MISSOURI
NATIONAL WEATHER SERVICE KANSAS CITY/PLEASANT HILL MO
900 PM CST FRI FEB 12 2016

KSZ040-057-103>105-MOZ028-029-037-043-130400-
...KANSAS CITY METROPOLITAN AREA...

CITY           SKY/WX    TMP DP  RH WIND       PRES   REMARKS
K.C. INTL      CLEAR     20   8  60 N9        30.57R WCI   9
K.C. DOWNTOWN  CLEAR     24   7  48 N9        30.57R WCI  14
LEES SUMMIT    CLEAR     23   6  48 N12       30.54R WCI  12
OLATHE - IXD   CLEAR     23   8  52 N12       30.56R WCI  12
OLATHE - OJC   CLEAR     24   5  44 N9        30.54R WCI  14
LAWRENCE       CLOUDY    25   9  50 N9        30.58R WCI  15

$$

MOZ001>008-011>017-020>025-030>033-038>040-044>046-053-054-130400-
...NORTHERN AND CENTRAL MISSOURI...

CITY           SKY/WX    TMP DP  RH WIND       PRES   REMARKS
ST. JOSEPH     CLOUDY    18   7  62 N13       30.61R WCI   5
MOSBY          CLEAR     23   7  50 N9        30.58R WCI  13
WARRENSBURG    CLEAR     23   9  54 N7        30.56R WCI  15
WHITEMAN AFB   CLEAR     22   5  47 N10       30.54R WCI  11
CLINTON          N/A     28  10  47 N13       30.55R WCI  18
SEDALIA        CLEAR     23   6  48 N10       30.55R WCI  12
WARSAW         NOT AVBL
CHILLICOTHE      N/A     18   1  47 N9        30.59S WCI   7
KIRKSVILLE     CLEAR     13   1  59 NW8       30.55R WCI   2

$$

MOZ041-047>049-056>058-063>065-088>090-097-130400-
...EASTERN AND SOUTHERN MISSOURI...

CITY           SKY/WX    TMP DP  RH WIND       PRES   REMARKS
ST. LOUIS INTL CLEAR     23   9  55 NW15G22   30.48R WCI  10
SPIRIT OF STL  CLEAR     23   5  46 NW13G22   30.50R WCI  11
COLUMBIA       CLEAR     22  10  60 N12       30.51R WCI  10
JEFFERSON CITY CLEAR     26   9  48 N12       30.54R WCI  16
ROLLA          CLEAR     24  11  57 N12       30.45R WCI  13
OSAGE BEACH    CLEAR     27   7  43 N8        30.51R WCI  18
SPRINGFIELD    CLEAR     29  15  56 N9        30.46R WCI  20
BRANSON        CLEAR     32  21  64 N12       30.45R WCI  23
JOPLIN         PTCLDY    32  18  56 NE10      30.49R WCI  24
WEST PLAINS    CLEAR     31  14  49 N7        30.43R WCI  24

$$

IAZ060-094-KSZ022-034>040-054-083-096-NEZ052-066-093-130400-
...KANSAS...SOUTHEAST NEBRASKA AND IOWA...

CITY           SKY/WX    TMP DP  RH WIND       PRES   REMARKS
TOPEKA         CLOUDY    25   6  44 NE12      30.59R WCI  14
MANHATTAN      CLOUDY    27  13  55 NE14      30.58R WCI  16
EMPORIA        CLOUDY    30  15  53 NE13      30.52R WCI  20
CHANUTE        CLOUDY    33  16  49 NE12      30.51R WCI  24
WICHITA        CLOUDY    35  22  58 NE16      30.48S WCI  25
OMAHA          CLOUDY    14   2  58 N10       30.65R WCI   1
LINCOLN        CLOUDY    16   8  71 N10       30.64R WCI   4
FALLS CITY     CLOUDY    18   7  62 N7        30.61R WCI   9
LAMONI         CLOUDY    10  -1  61 N12       30.57R WCI  -5
DES MOINES     CLOUDY     8  -1  66 NW8       30.60R WCI  -4

$$




USA.gov is the U.S. government's official web portal to all federal, state and local government web resources and services.